When you browse on this site, cookies collect data to enhance your experience and personalize the content and advertising you see.
Visit our Privacy Policy to learn more. By continuing to use the site, you agree to this use of cookies and data.
  • In Switzerland
  • List of Countries
  • For 7 days
  • Water Temperature
  • Satellite Maps
  • Weather Map
  • Weather Widgets
  • user-avatar
    Login

    Hourly Weather Zalozie

    Today, 21 February, Thursday

    Time Temperature Precipitation Wind Pressure Humidity
    00:00 +4°C° 0 mm 3 mps 754 mmHg 86%
    01:00 +3°C° 0 mm 3 mps 754 mmHg 87%
    02:00 +4°C° 0 mm 3 mps 754 mmHg 88%
    03:00 +4°C° 0 mm 3 mps 754 mmHg 89%
    04:00 +4°C° 0 mm 3 mps 754 mmHg 89%
    05:00 +3°C° 0 mm 4 mps 754 mmHg 89%
    06:00 +3°C° 0 mm 4 mps 754 mmHg 89%
    07:00 +3°C° 0 mm 4 mps 754 mmHg 89%
    08:00 +3°C° 0.1 mm 4 mps 754 mmHg 85%
    09:00 +3°C° 0.1 mm 5 mps 754 mmHg 82%
    10:00 +5°C° 0.1 mm 5 mps 754 mmHg 78%
    11:00 +5°C° 0.3 mm 5 mps 754 mmHg 78%
    12:00 +5°C° 0.3 mm 5 mps 754 mmHg 77%
    13:00 +6°C° 0.3 mm 5 mps 753 mmHg 77%
    14:00 +6°C° 0.6 mm 5 mps 753 mmHg 78%
    15:00 +4°C° 0.6 mm 6 mps 753 mmHg 79%
    16:00 +4°C° 0.6 mm 6 mps 753 mmHg 80%
    17:00 +5°C° 0.3 mm 5 mps 752 mmHg 80%
    18:00 +5°C° 0.3 mm 5 mps 752 mmHg 81%
    19:00 +5°C° 0.3 mm 5 mps 752 mmHg 82%
    20:00 +5°C° 0.3 mm 5 mps 752 mmHg 84%
    21:00 +4°C° 0.3 mm 6 mps 752 mmHg 86%
    22:00 +4°C° 0.3 mm 6 mps 751 mmHg 88%
    23:00 +5°C° 1.1 mm 6 mps 751 mmHg 90%

    Tomorrow, 22 February, Friday

    Time Temperature Precipitation Wind Pressure Humidity
    00:00 +5°C° 1.1 mm 6 mps 751 mmHg 91%
    01:00 +5°C° 1.1 mm 6 mps 751 mmHg 92%
    02:00 +5°C° 1 mm 6 mps 752 mmHg 93%
    03:00 +4°C° 1 mm 6 mps 752 mmHg 93%
    04:00 +4°C° 1 mm 6 mps 752 mmHg 93%
    05:00 +3°C° 0.1 mm 7 mps 753 mmHg 89%
    06:00 0°C° 0.1 mm 7 mps 754 mmHg 84%
    07:00 -1°C° 0.1 mm 8 mps 756 mmHg 80%
    08:00 -2°C° 0 mm 7 mps 757 mmHg 75%
    09:00 -2°C° 0 mm 7 mps 758 mmHg 69%
    10:00 -2°C° 0 mm 6 mps 760 mmHg 63%
    11:00 -2°C° 0 mm 6 mps 761 mmHg 58%
    12:00 -2°C° 0 mm 6 mps 761 mmHg 53%
    13:00 0°C° 0 mm 5 mps 762 mmHg 49%
    14:00 0°C° 0 mm 5 mps 762 mmHg 48%
    15:00 -1°C° 0 mm 5 mps 763 mmHg 47%
    16:00 -1°C° 0 mm 5 mps 763 mmHg 46%
    17:00 -2°C° 0 mm 5 mps 764 mmHg 47%
    18:00 -2°C° 0 mm 4 mps 764 mmHg 49%
    19:00 -3°C° 0 mm 4 mps 765 mmHg 50%
    20:00 -3°C° 0 mm 4 mps 766 mmHg 49%
    21:00 -3°C° 0 mm 4 mps 766 mmHg 49%
    22:00 -4°C° 0 mm 4 mps 767 mmHg 48%
    23:00 -4°C° 0 mm 3 mps 767 mmHg 46%

    Day after tomorrow, 23 February, Saturday

    Time Temperature Precipitation Wind Pressure Humidity
    00:00 -4°C° 0 mm 3 mps 767 mmHg 45%
    01:00 -4°C° 0 mm 3 mps 767 mmHg 44%
    02:00 -4°C° 0 mm 3 mps 767 mmHg 43%
    03:00 -3°C° 0 mm 2 mps 767 mmHg 42%
    04:00 -4°C° 0 mm 2 mps 767 mmHg 41%
    05:00 -4°C° 0 mm 2 mps 767 mmHg 40%
    06:00 -4°C° 0 mm 2 mps 768 mmHg 40%
    07:00 -4°C° 0 mm 2 mps 768 mmHg 39%
    08:00 -3°C° 0 mm 2 mps 768 mmHg 36%
    09:00 -3°C° 0 mm 2 mps 768 mmHg 33%
    10:00 -2°C° 0 mm 2 mps 768 mmHg 29%
    11:00 -2°C° 0 mm 2 mps 768 mmHg 27%
    12:00 +1°C° 0 mm 1 mps 768 mmHg 25%
    13:00 +2°C° 0 mm 1 mps 768 mmHg 23%
    14:00 +2°C° 0 mm 1 mps 767 mmHg 23%
    15:00 +2°C° 0 mm 1 mps 767 mmHg 24%
    16:00 +2°C° 0 mm 1 mps 767 mmHg 25%
    17:00 +1°C° 0 mm 1 mps 767 mmHg 28%
    18:00 0°C° 0 mm 1 mps 767 mmHg 31%
    19:00 0°C° 0 mm 1 mps 767 mmHg 33%
    20:00 0°C° 0 mm 1 mps 767 mmHg 33%
    21:00 0°C° 0 mm 1 mps 767 mmHg 34%
    22:00 0°C° 0 mm 1 mps 767 mmHg 34%
    23:00 0°C° 0 mm 1 mps 767 mmHg 34%

    24 February, Sunday

    Time Temperature Precipitation Wind Pressure Humidity
    00:00 0°C° 0 mm 1 mps 766 mmHg 34%
    01:00 -2°C° 0 mm 2 mps 766 mmHg 35%
    02:00 -2°C° 0 mm 2 mps 766 mmHg 35%
    03:00 -2°C° 0 mm 2 mps 765 mmHg 36%
    04:00 -2°C° 0 mm 2 mps 765 mmHg 36%
    05:00 -2°C° 0 mm 2 mps 765 mmHg 36%
    06:00 -2°C° 0 mm 2 mps 765 mmHg 36%
    07:00 -2°C° 0 mm 2 mps 765 mmHg 35%
    08:00 -1°C° 0 mm 2 mps 764 mmHg 33%
    09:00 +1°C° 0 mm 2 mps 764 mmHg 31%
    10:00 +1°C° 0 mm 3 mps 764 mmHg 28%
    11:00 +2°C° 0 mm 3 mps 764 mmHg 29%
    12:00 +3°C° 0 mm 3 mps 763 mmHg 30%
    13:00 +4°C° 0 mm 3 mps 763 mmHg 31%
    14:00 +4°C° 0 mm 3 mps 762 mmHg 38%
    15:00 +4°C° 0 mm 3 mps 762 mmHg 44%
    16:00 +3°C° 0 mm 3 mps 762 mmHg 50%
    17:00 +3°C° 0 mm 3 mps 762 mmHg 54%
    18:00 +2°C° 0 mm 3 mps 762 mmHg 58%
    19:00 +1°C° 0 mm 3 mps 761 mmHg 62%
    20:00 +1°C° 0 mm 3 mps 761 mmHg 64%
    21:00 +2°C° 0 mm 3 mps 761 mmHg 65%
    22:00 +2°C° 0 mm 3 mps 761 mmHg 67%
    23:00 +1°C° 0.2 mm 4 mps 761 mmHg 71%

    25 February, Monday

    Time Temperature Precipitation Wind Pressure Humidity
    00:00 +1°C° 0.2 mm 4 mps 761 mmHg 74%
    01:00 0°C° 0.2 mm 4 mps 760 mmHg 78%
    02:00 0°C° 0 mm 4 mps 761 mmHg 83%
    03:00 0°C° 0 mm 4 mps 761 mmHg 88%
    04:00 0°C° 0 mm 4 mps 761 mmHg 93%
    05:00 +1°C° 0 mm 4 mps 761 mmHg 93%
    06:00 +1°C° 0 mm 5 mps 762 mmHg 93%
    07:00 +1°C° 0 mm 5 mps 762 mmHg 93%
    08:00 +2°C° 0 mm 5 mps 763 mmHg 88%
    09:00 +2°C° 0 mm 5 mps 763 mmHg 83%
    10:00 +3°C° 0 mm 4 mps 764 mmHg 78%
    11:00 +3°C° 0 mm 5 mps 764 mmHg 72%
    12:00 +5°C° 0 mm 5 mps 764 mmHg 65%
    13:00 +6°C° 0 mm 5 mps 764 mmHg 59%
    14:00 +6°C° 0 mm 4 mps 764 mmHg 58%
    15:00 +6°C° 0 mm 4 mps 763 mmHg 57%
    16:00 +6°C° 0 mm 4 mps 763 mmHg 56%
    17:00 +5°C° 0 mm 3 mps 763 mmHg 61%
    18:00 +4°C° 0 mm 3 mps 764 mmHg 66%
    19:00 +3°C° 0 mm 3 mps 764 mmHg 71%
    20:00 +3°C° 0 mm 3 mps 764 mmHg 72%
    21:00 +3°C° 0 mm 2 mps 764 mmHg 73%
    22:00 +3°C° 0 mm 2 mps 763 mmHg 74%
    23:00 +3°C° 0 mm 2 mps 763 mmHg 75%

    26 February, Tuesday

    Time Temperature Precipitation Wind Pressure Humidity
    00:00 +1°C° 0 mm 3 mps 762 mmHg 76%
    01:00 +1°C° 0 mm 3 mps 762 mmHg 77%
    02:00 +1°C° 0 mm 3 mps 761 mmHg 77%
    03:00 0°C° 0 mm 4 mps 760 mmHg 77%
    04:00 0°C° 0 mm 4 mps 760 mmHg 77%
    05:00 0°C° 0 mm 4 mps 759 mmHg 80%
    06:00 0°C° 0 mm 5 mps 759 mmHg 84%
    07:00 0°C° 0 mm 5 mps 759 mmHg 88%
    08:00 +1°C° 0 mm 5 mps 758 mmHg 84%
    09:00 +2°C° 0 mm 5 mps 758 mmHg 81%
    10:00 +3°C° 0 mm 6 mps 758 mmHg 77%
    11:00 +4°C° 0 mm 6 mps 757 mmHg 72%
    12:00 +5°C° 0 mm 6 mps 756 mmHg 67%
    13:00 +8°C° 0 mm 6 mps 756 mmHg 63%
    14:00 +8°C° 0 mm 6 mps 755 mmHg 62%
    15:00 +8°C° 0 mm 6 mps 755 mmHg 62%
    16:00 +8°C° 0 mm 7 mps 754 mmHg 62%
    17:00 +8°C° 0 mm 6 mps 754 mmHg 66%
    18:00 +7°C° 0 mm 5 mps 754 mmHg 70%
    19:00 +6°C° 0 mm 5 mps 754 mmHg 74%
    20:00 +6°C° 0 mm 5 mps 754 mmHg 76%
    21:00 +6°C° 0 mm 5 mps 754 mmHg 78%
    22:00 +5°C° 0 mm 5 mps 754 mmHg 81%
    23:00 +5°C° 0 mm 5 mps 755 mmHg 84%
    Show more